Regional Weather Roundup
Issued by NWS

Home | Current Version | Previous Version | Graphics & Text | Print | Product List | Glossary On
Versions: 1 2 3 4 5 6 7 8 9 10 11 12 13 14 15 16 17 18 19 20 21 22 23 24 25 26 27 28 29 30 31 32 33 34 35 36 37 38 39 40 41 42 43 44 45 46 47 48 49 50
000
ASUS45 KPSR 260600
RWRAZ

PRELIMINARY ARIZONA REGIONAL HOURLY WEATHER ROUNDUP
NATIONAL WEATHER SERVICE PHOENIX AZ
1100 PM MST SAT OCT 25 2014

NOTE: FAIR INDICATES FEW OR NO CLOUDS BELOW 12,000 FEET WITH NO
SIGNIFICANT WEATHER AND/OR OBSTRUCTIONS TO VISIBILITY.

AZZ001>003-036-260700-
NORTHWEST ARIZONA

CITY           SKY/WX    TMP DP  RH WIND       PRES   REMARKS
KINGMAN        CLEAR     61  45  55 SW9       30.05S
6HR MIN TEMP:  59; 6HR MAX TEMP:  78;

$$

AZZ004>008-015-016-018-260700-
NORTH CENTRAL ARIZONA

CITY           SKY/WX    TMP DP  RH WIND       PRES   REMARKS
GRAND CANYON   PTCLDY    43  37  79 CALM      30.23F
6HR MIN TEMP:  40; 6HR MAX TEMP:  67;

PRESCOTT       CLEAR     55  42  61 S9        30.16F
6HR MIN TEMP:  54; 6HR MAX TEMP:  73;

FLAGSTAFF      CLEAR     44  38  79 CALM      30.26F
6HR MIN TEMP:  44; 6HR MAX TEMP:  63;

PAYSON         CLEAR     59  46  63 CALM      30.19S
PAGE           CLEAR     66  39  37 SW5       30.06R
6HR MIN TEMP:  65; 6HR MAX TEMP:  76;

$$

AZZ009>014-017-260700-
NORTHEAST ARIZONA

CITY           SKY/WX    TMP DP  RH WIND       PRES   REMARKS
WINSLOW        NOT AVBL
SAINT JOHNS    CLEAR     59  43  55 S10       30.21F
6HR MIN TEMP:  58; 6HR MAX TEMP:  74;

WINDOW ROCK    PTCLDY    51  37  58 CALM      30.26F
6HR MIN TEMP:  51; 6HR MAX TEMP:  70;

$$

AZZ023-260700-
GREATER PHOENIX AREA

CITY           SKY/WX    TMP DP  RH WIND       PRES   REMARKS
PHOENIX        CLEAR     81  53  37 E5        29.90S
6HR MIN TEMP:  81; 6HR MAX TEMP:  95;

DEER VALLEY    CLEAR     75  50  41 CALM      29.92S
6HR MIN TEMP:  74; 6HR MAX TEMP:  91;

SCOTTSDALE     CLEAR     78  52  40 CALM      29.94S
6HR MIN TEMP:  78; 6HR MAX TEMP:  93;

MESA-GATEWAY   PTCLDY    73  55  53 CALM      29.95S
$$

AZZ027-028-260700-
SOUTHWEST MARICOPA COUNTY AND PINAL COUNTY

CITY           SKY/WX    TMP DP  RH WIND       PRES   REMARKS
CASA GRANDE    CLEAR     73  48  40 CALM      29.95S
6HR MIN TEMP:  73; 6HR MAX TEMP:  93;

$$

AZZ503-504-507>509-260700-
SOUTHEAST ARIZONA

CITY           SKY/WX    TMP DP  RH WIND       PRES   REMARKS
TUCSON         CLEAR     76  51  41 SE8       30.05S
6HR MIN TEMP:  76; 6HR MAX TEMP:  92;

DAVIS-MONTHAN  CLEAR     73  53  48 SE7       30.03F
6HR MIN TEMP:  73; 6HR MAX TEMP:  90;

NOGALES        CLEAR     64  50  60 CALM      30.13S
6HR MIN TEMP:  64; 6HR MAX TEMP:  84;

SIERRA VISTA   PTCLDY    68  49  50 VRB6      30.18S
6HR MIN TEMP:  68; 6HR MAX TEMP:  82;

SAFFORD        CLEAR     66  49  54 NE5       30.05F
6HR MIN TEMP:  66; 6HR MAX TEMP:  86;

$$

AZZ020-021-025-026-031-260700-
SOUTHWEST ARIZONA

CITY           SKY/WX    TMP DP  RH WIND       PRES   REMARKS
YUMA           NOT AVBL
$$

CAZ031-033-041-043-047-048-061-260700-
SOUTHERN CALIFORNIA

CITY           SKY/WX    TMP DP  RH WIND       PRES   REMARKS
DOWNTOWN L.A.  CLEAR     67  60  78 CALM      30.01R
6HR MIN TEMP:  66; 6HR MAX TEMP:  74;

L.A. AIRPORT   CLEAR     67  62  84 W5        30.02R
6HR MIN TEMP:  67; 6HR MAX TEMP:  71;

SAN DIEGO      MOCLDY    69  62  78 CALM      30.05R
6HR MIN TEMP:  69; 6HR MAX TEMP:  74;

BURBANK        CLEAR     65  47  52 CALM      30.02S
6HR MIN TEMP:  65; 6HR MAX TEMP:  78;

ONTARIO        CLEAR     66  50  56 CALM      30.03R
6HR MIN TEMP:  65; 6HR MAX TEMP:  81;

RIVERSIDE      CLEAR     65  51  60 CALM      30.03S
6HR MIN TEMP:  65; 6HR MAX TEMP:  80;

PALM SPRINGS   CLEAR     82  46  28 VRB3      29.92S
6HR MIN TEMP:  82; 6HR MAX TEMP:  93;

EL CENTRO NAS  CLEAR     77  53  43 W5        29.87S
6HR MIN TEMP:  77; 6HR MAX TEMP:  95;

IMPERIAL       CLEAR     76  56  49 W8        29.86S
6HR MIN TEMP:  76; 6HR MAX TEMP:  94;

BLYTHE         CLEAR     81  49  32 W8        29.87S
6HR MIN TEMP:  81; 6HR MAX TEMP:  94;

$$

NVZ020-UTZ003-260700-
SOUTHERN NEVADA-UTAH

CITY           SKY/WX    TMP DP  RH WIND       PRES   REMARKS
LAS VEGAS      NOT AVBL
SALT LAKE CITY PTCLDY    68  39  34 S16G28    29.91R
6HR MIN TEMP:  68; 6HR MAX TEMP:  75; 6HR PCP: TRACE;

$$

NMZ009-TXZ055-260700-
NEW MEXICO-WEST TEXAS

CITY           SKY/WX    TMP DP  RH WIND       PRES   REMARKS
ALBUQUERQUE    CLEAR     57  35  43 SE8       30.19S
6HR MIN TEMP:  57; 6HR MAX TEMP:  76;

EL PASO        CLEAR     66  50  56 S3        30.12F
6HR MIN TEMP:  63; 6HR MAX TEMP:  83;

$$


........................KEY........................
SKY/WX - SKY CONDITION/WEATHER
TMP    - TEMPERATURE IN FAHRENHEIT
DP     - DEW POINT IN FAHRENHEIT
RH     - RELATIVE HUMIDITY IN PERCENT
WIND   - DIRECTION AND SPEED IN MILES PER HOUR (MPH)
VRB    - VARIABLE WIND DIRECTION
PRES   - MEAN SEA LEVEL PRESSURE IN INCHES OF MERCURY
         F - FALLING PRESSURE   R - RISING PRESSURE
         S - STEADY PRESSURE
VSB    - VISIBILITY IN MILES
HX     - HEAT INDEX IN FAHRENHEIT
WCI    - WIND CHILL INDEX IN FAHRENHEIT
TC     - TEMPERATURE IN CELSIUS WHICH IS ALSO KNOWN AS
         TEMPERATURE IN CENTIGRADE
AFB    - AIR FORCE BASE
         LUKE AFB IS LUKE AIR FORCE BASE
         DAVIS-MONTHAN IS DAVIS-MONTHAN AIR FORCE BASE
NAS    - NAVAL AIR STATION
         EL CENTRO NAS IS EL CENTRO NAVAL AIR STATION
N/A    - NOT AVAILABLE



USA.gov is the U.S. government's official web portal to all federal, state and local government web resources and services.